Regional Weather Roundup
Issued by NWS

Home | Current Version | Previous Version | Graphics & Text | Print | Product List | Glossary On
Versions: 1 2 3 4 5 6 7 8 9 10 11 12 13 14 15 16 17 18 19 20 21 22 23 24 25 26 27 28 29 30 31 32 33 34 35 36 37 38 39 40 41 42 43 44 45 46 47 48 49 50
000
ASUS43 KMKX 231711
RWRWI

WISCONSIN REGIONAL WEATHER ROUNDUP
NATIONAL WEATHER SERVICE MILWAUKEE/SULLIVAN WI
1200 PM CDT WED AUG 23 2017

NOTE: "FAIR" INDICATES FEW OR NO CLOUDS BELOW 12,000 FEET WITH NO
SIGNIFICANT WEATHER AND/OR OBSTRUCTIONS TO VISIBILITY.

WIZ001-002-006>008-014>016-023>028-231800-
NORTHWEST WISCONSIN

CITY           SKY/WX    TMP DP  RH WIND       PRES   REMARKS
SUPERIOR ARPT    N/A     63  49  60 NW9       30.09F
ASHLAND        PTSUNNY   65  48  54 N13G18    30.09S
HAYWARD        CLOUDY    62  48  60 VRB6      30.10R
SIREN          PTSUNNY   65  48  52 N10       30.11S
CUMBERLAND     CLOUDY    63  46  55 NW16      30.10S
RICE LAKE      PTSUNNY   66  49  54 N13       30.11S
CHETEK         PTSUNNY   65  51  62 NW9       30.10S
LADYSMITH      CLOUDY    64  49  58 NW12      30.10S
EAU CLAIRE     MOSUNNY   69  50  50 NW15      30.08S
MENOMONIE      MOSUNNY   68  52  57 W10       30.09F
NEW RICHMOND   MOSUNNY   67  51  55 N8        30.11S
OSCEOLA        PTSUNNY   67  52  56 NW8       30.13F
$$

WIZ003>005-009-010-017-018-231800-
NORTH CENTRAL WISCONSIN

CITY           SKY/WX    TMP DP  RH WIND       PRES   REMARKS
MANITOWISH WTR PTSUNNY   59  53  78 N9        30.06S
ARBOR VITAE    MOSUNNY   63  50  62 N10G16    30.06R
WOODRUFF       MOSUNNY   63  50  62 N10G16    30.06R
RHINELANDER    PTSUNNY   62  49  62 NW12G17   30.06S
EAGLE RIVER    CLOUDY    61  47  60 N9        30.05S
LAND O LAKES   MOSUNNY   61  48  61 NW14G21   30.07S
PHILLIPS       CLOUDY    62  50  63 N13       30.07S
TOMAHAWK         N/A     63  49  59 N7        30.06F
MEDFORD        CLOUDY    61  51  68 NW7       30.07S
MERRILL        PTSUNNY   63  52  67 NW12G17   30.06S
$$

WIZ029-030-035-036-043>047-231800-
CENTRAL WISCONSIN

CITY           SKY/WX    TMP DP  RH WIND       PRES   REMARKS
WAUSAU         CLOUDY    63  50  62 NW7       30.04S
MOSINEE        PTSUNNY   64  52  63 NW14      30.07S
MARSHFIELD     MOSUNNY   68  50  52 N14G20    30.06S
STEVENS POINT  MOSUNNY   65  48  53 N13G18    30.05F
WAUPACA        MOSUNNY   72  49  44 NW14G20   30.03S
WAUTOMA        MOSUNNY   71  51  49 NW12G20   30.05S
WISC RAPIDS    MOSUNNY   70  51  51 N14G20    30.07S
CAMP DOUGLAS   MOSUNNY   70  52  52 NW14      30.07S
$$

WIZ011>013-019>022-031-037>040-048>050-231800-
NORTHEAST WISCONSIN

CITY           SKY/WX    TMP DP  RH WIND       PRES   REMARKS
ANTIGO         MOSUNNY   64  50  59 NW15G21   30.04S
SHAWANO        CLOUDY    67  52  57 W8        30.02S
OCONTO         PTSUNNY   67  50  54 NW5       30.01S
STURGEON BAY   PTSUNNY   65  53  65 N9        30.02S
GREEN BAY      PTSUNNY   69  56  62 NW9       30.02S
MANITOWOC      CLOUDY    67  52  58 NW7       30.03R
APPLETON       PTSUNNY   66  48  52 NW9       30.02S
CLINTONVILLE   PTSUNNY   68  50  52 NW10      30.03S
OSHKOSH        MOSUNNY   68  53  58 NW10      30.03S
$$

WIZ032>034-041-042-053>061-231800-
SOUTHWEST WISCONSIN

CITY           SKY/WX    TMP DP  RH WIND       PRES   REMARKS
LA CROSSE      SUNNY     73  54  51 NW10      30.08S
SPARTA         PTSUNNY   69  52  53 NW6G16    30.09S
VIROQUA        PTSUNNY   67  55  63 NW9       30.10S
BOSCOBEL       MOSUNNY   74  52  46 MISG      30.09S
PRAIRIE DU CHI SUNNY     73  47  39 NW12      30.09S
PLATTEVILLE    PTSUNNY   70  55  59 NW9       30.10S
$$

WIZ056-057-062-063-064-067-068-231800-
SOUTH CENTRAL WISCONSIN

CITY           SKY/WX    TMP DP  RH WIND       PRES   REMARKS
REEDSBURG      MOSUNNY   71  50  47 W15G22    30.07S
BARABOO/DELLS  SUNNY     70  45  40 NW13      30.07S
LONE ROCK      MOSUNNY   72  55  55 W14       30.07S
MINERAL POINT  MOSUNNY   72  52  49 NW12G21   30.09F
MADISON        MOSUNNY   70  53  54 NW13G18   30.06S
MIDDLETON      SUNNY     71  53  53 NW10      30.07S
WATERTOWN      PTSUNNY   69  52  55 NW9G17    30.05S
MONROE         MOSUNNY   70  52  52 NW8       30.08S
JANESVILLE     PTSUNNY   73  50  43 NW12G17   30.06
$$

WIZ051-052-058>065-066-070>072-231800-
SOUTHEAST WISCONSIN

CITY           SKY/WX    TMP DP  RH WIND       PRES   REMARKS
MILWAUKEE      PTSUNNY   73  51  46 NW13      30.03S
WAUKESHA       MOSUNNY   68  50  52 NW10G17   30.06R
MILWAUKEE/TIMM PTSUNNY   70  46  43 W9        30.04S
RACINE         MOSUNNY   72  52  49 N13       30.05S
KENOSHA        MOSUNNY   73  52  47 NW10      30.05R
FOND DU LAC    PTSUNNY   69  51  52 NW8       30.04S
SHEBOYGAN      MOSUNNY   69  55  60 N7        30.03R
WEST BEND      MOSUNNY   66  50  55 N9        30.04S
JUNEAU         MOSUNNY   67  52  57 NW8       30.06S
$$

LSZ147-162-231800-
LAKE SUPERIOR

STATION/POSITION TIME  TEMP    WIND        PRES    WAVE
                       AIR SEA DIR/SP/G            HT/PER
                 (UTC) (F)     (DEG/KT/KT) (MB)    (FT/S)
W MID LAKE BUOY  1650   58 59  300/ 12/ 16 1018.0R   2/ 4
DEVILS ISLAND    1700   58     340/  4/  6 1019.2R
SAXON HARBOR     1640   61     360/ 10/ 13 1018.6R
$$

LMZ867-665-643>646-231800-
LAKE MICHIGAN

STATION/POSITION TIME  TEMP    WIND        PRES    WAVE
                       AIR SEA DIR/SP/G            HT/PER
                 (UTC) (F)     (DEG/KT/KT) (MB)    (FT/S)
S GREEN BAY BUOY 1700   65 70  350/ 10/ 14 1016.2
N MID LAKE BUOY  1650   61 66  310/ 14/ 17 1015.8R   2/ 4
NORTHPORT PIER   1640   63     330/ 14/ 17 1015.6R
KEWAUNEE LAKESHO 1642   66     340/  6/  9 1015.4R
SHEBOYGAN LAKESH 1700   64      20/  9/ 11 1016.4S
PORT WASHINGTON  1640   70     330/  8/ 14 1017.6S
ATWATER BUOY     1609   67 68  330/ 10/ 12 1017.0R
MILWAUKEE LAKESH 1650   69     340/  8/ 11   N/A
S MID LAKE BUOY  1650   65 71  340/ 12/ 14 1017.0R   3/ 4
KENOSHA   LAKESH 1700   69     290/ 11/ 18 1016.9
$$

TC  - TEMPERATURE IN CELSIUS
VSB - VISIBILITY IN STATUTE MILES
WCI - WIND CHILL INDEX
HX  - HEAT INDEX





USA.gov is the U.S. government's official web portal to all federal, state and local government web resources and services.